Location: McCall
(45.0000°N, 116.0000°W)
Time: 23:15:35
(UTC-06:00)

Amateur Radio Satellites - All Passes

Search period start: 24 July 2014 22:45
Search period end: 25 July 2014 22:45
Location: McCall, 45.0000°N, 116.0000°W

Satellite Date Start Highest point End Downlink Frequencies (MHz)
Time Altitude Azimuth
FUNcube-1 24 Jul 22:48:33 22:52:40 42° 71° (ENE) 22:56:43 145.950 - 145.970 MHz USB
RS-15 24 Jul 22:53:28 23:04:09 52° 41° (NE) 23:15:05 29.354 - 29.394 USB, Beacon 29.352 USB
UOSAT-12 24 Jul 22:54:10 22:55:53 12° 25° (NNE) 22:57:36 437.025 FM, 437.400 FM
MaSat-1 24 Jul 23:10:37 23:14:27 49° 111° (ESE) 23:18:55 437.345 MHz
UKube-1 24 Jul 23:27:51 23:30:21 15° 269° (W) 23:32:53 145.840 MHz, 145.915 MHz
SO-50 24 Jul 23:46:42 23:51:20 55° 240° (WSW) 23:56:02 436.795 FM
FUNcube-1 25 Jul 00:26:07 00:29:15 19° 267° (W) 00:32:21 145.950 - 145.970 MHz USB
Lituanica SAT-1 25 Jul 00:32:37 00:34:14 19° 140° (SE) 00:35:51 437.275 MHz beacon
UOSAT-12 25 Jul 00:32:46 00:37:18 43° 47° (NE) 00:41:46 437.025 FM, 437.400 FM
MaSat-1 25 Jul 00:48:46 00:52:10 23° 314° (NW) 00:55:57 437.345 MHz
RS-15 25 Jul 01:06:06 01:16:44 57° 246° (WSW) 01:27:45 29.354 - 29.394 USB, Beacon 29.352 USB
PCSat 25 Jul 01:21:03 01:23:00 12° 102° (ESE) 01:24:56 145.825 MHz
ISS 25 Jul 01:40:40 01:43:12 20° 136° (SE) 01:45:45 145.800 FM
Lituanica SAT-1 25 Jul 02:04:49 02:06:46 32° 338° (NNW) 02:08:43 437.275 MHz beacon
UOSAT-12 25 Jul 02:13:15 02:17:17 28° 246° (WSW) 02:21:16 437.025 FM, 437.400 FM
Sapphire 25 Jul 02:26:41 02:31:43 41° 113° (ESE) 02:36:47 437.095 MHz 1200 baud AX-25 AFSK
Oscar 19 25 Jul 02:57:19 03:02:13 42° 98° (E) 03:07:05 437.125 CW, 437.150 USB
PCSat 25 Jul 03:00:06 03:05:31 82° 120° (ESE) 03:10:58 145.825 MHz
ISS 25 Jul 03:16:18 03:19:38 66° 333° (NNW) 03:23:00 145.800 FM
RS-15 25 Jul 03:23:54 03:26:29 11° 267° (W) 03:29:04 29.354 - 29.394 USB, Beacon 29.352 USB
Oscar 16 25 Jul 03:24:46 03:29:57 77° 103° (ESE) 03:35:07 437.025 USB, Beacon 2401.1428
TMSAT-1 25 Jul 03:32:39 03:35:04 13° 88° (E) 03:37:27 436.925 FM
ITAMSAT 1 25 Jul 03:36:34 03:41:33 44° 99° (E) 03:46:28 435.822 SSB
Lituanica SAT-1 25 Jul 03:38:37 03:39:50 14° 357° (N) 03:41:04 437.275 MHz beacon
OPAL 25 Jul 03:47:20 03:51:33 29° 62° (ENE) 03:55:47 ?
AO-Echo 25 Jul 03:48:21 03:53:28 61° 101° (E) 03:58:23 ?
JAS-1B 25 Jul 03:52:01 04:01:15 47° 95° (E) 04:09:19 435.800 - 435.900 CW/SSB
Gurwin Techsat 1B 25 Jul 03:52:34 03:57:04 27° 94° (E) 04:01:33 435.225 FM
AO-27 25 Jul 03:54:30 03:59:41 66° 102° (ESE) 04:04:49 436.795 MHz FM
Uribyol 2 25 Jul 03:57:04 04:02:15 72° 103° (ESE) 04:07:23 436.500 FM
Sapphire 25 Jul 04:10:17 04:15:13 35° 313° (NW) 04:20:11 437.095 MHz 1200 baud AX-25 AFSK
Oscar 10/S400 25 Jul 04:31:52 05:32:55 51° 209° (SSW) 12:22:24 145.825 - 145.975 CW/USB, Beacon 145.810 USB
Oscar 19 25 Jul 04:37:03 04:41:22 28° 296° (WNW) 04:45:41 437.125 CW, 437.150 USB
PCSat 25 Jul 04:45:31 04:49:36 21° 321° (NW) 04:53:43 145.825 MHz
ISS 25 Jul 04:53:52 04:56:47 27° 353° (N) 04:59:43 145.800 FM
AO-7 25 Jul 04:53:53 05:00:07 23° 91° (E) 05:06:17 29.400 - 29.500 MHz
Oscar 16 25 Jul 05:05:34 05:08:41 16° 301° (WNW) 05:11:48 437.025 USB, Beacon 2401.1428
TMSAT-1 25 Jul 05:10:21 05:15:41 85° 285° (WNW) 05:20:58 436.925 FM
Lituanica SAT-1 25 Jul 05:11:18 05:13:00 20° 16° (NNE) 05:14:41 437.275 MHz beacon
ITAMSAT 1 25 Jul 05:16:33 05:20:48 26° 297° (WNW) 05:25:03 435.822 SSB
OPAL 25 Jul 05:25:44 05:30:19 38° 260° (W) 05:34:56 ?
AO-Echo 25 Jul 05:28:05 05:31:45 20° 300° (WNW) 05:35:19 ?
Gurwin Techsat 1B 25 Jul 05:32:11 05:37:11 42° 292° (WNW) 05:42:09 435.225 FM
AO-27 25 Jul 05:35:07 05:38:41 19° 300° (WNW) 05:42:14 436.795 MHz FM
Uribyol 2 25 Jul 05:37:50 05:41:09 17° 301° (WNW) 05:44:27 436.500 FM
Uosat F 25 Jul 05:41:33 05:46:23 45° 99° (E) 05:51:10 435.120 FM
JAS-1B 25 Jul 05:42:31 05:51:44 50° 297° (WNW) 05:59:56 435.800 - 435.900 CW/SSB
Sapphire 25 Jul 05:59:49 06:00:22 10° 336° (NNW) 06:00:56 437.095 MHz 1200 baud AX-25 AFSK
STRAND 1 25 Jul 06:04:56 06:07:51 15° 58° (ENE) 06:10:47 ?
KITSAT 1 25 Jul 06:15:07 06:17:59 12° 97° (E) 06:20:51 435.175 FM
ISS 25 Jul 06:31:06 06:34:09 31° 13° (NNE) 06:37:12 145.800 FM
Lituanica SAT-1 25 Jul 06:43:42 06:45:44 47° 214° (SW) 06:47:45 437.275 MHz beacon
AO-7 25 Jul 06:45:26 06:53:50 83° 291° (WNW) 07:02:08 29.400 - 29.500 MHz
TMSAT-1 25 Jul 06:52:14 06:54:48 14° 304° (NW) 06:57:22 436.925 FM
JAS-2 25 Jul 06:58:15 07:02:44 21° 88° (E) 07:06:52 435.800 - 435.900 CW/SSB, 435.910 FM
Uosat F 25 Jul 07:20:52 07:24:55 25° 297° (WNW) 07:28:57 435.120 FM
MaSat-1 25 Jul 07:26:55 07:31:30 28° 49° (NE) 07:36:01 437.345 MHz
JAS-1B 25 Jul 07:35:00 07:39:49 15° 320° (NW) 07:44:27 435.800 - 435.900 CW/SSB
Hamsat 25 Jul 07:39:45 07:44:00 61° 101° (E) 07:48:16 145.90 MHz
STRAND 1 25 Jul 07:41:13 07:46:23 83° 256° (WSW) 07:51:34 ?
SO-67 25 Jul 07:51:55 07:52:54 11° 90° (E) 07:53:52 435.3500 MHz FM
KITSAT 1 25 Jul 08:03:49 08:11:46 64° 117° (ESE) 08:19:45 435.175 FM
ISS 25 Jul 08:07:45 08:11:07 75° 212° (SSW) 08:14:28 145.800 FM
Saudisat 1A 25 Jul 08:34:57 08:36:59 13° 109° (ESE) 08:39:02 436.775 MHz
AO-7 25 Jul 08:39:28 08:45:28 23° 312° (NW) 08:51:27 29.400 - 29.500 MHz
JAS-2 25 Jul 08:42:16 08:48:30 62° 290° (WNW) 08:54:00 435.800 - 435.900 CW/SSB, 435.910 FM
MaSat-1 25 Jul 09:03:59 09:09:10 52° 249° (WSW) 09:14:08 437.345 MHz
Hamsat 25 Jul 09:17:06 09:19:30 15° 298° (WNW) 09:21:56 145.90 MHz
SO-67 25 Jul 09:22:53 09:26:16 48° 286° (WNW) 09:29:37 435.3500 MHz FM
STRAND 1 25 Jul 09:25:24 09:26:21 10° 273° (W) 09:27:18 ?
Sapphire 25 Jul 09:30:21 09:32:59 14° 30° (NNE) 09:35:37 437.095 MHz 1200 baud AX-25 AFSK
ISS 25 Jul 09:46:12 09:47:19 11° 229° (SW) 09:48:26 145.800 FM
KITSAT 1 25 Jul 10:00:12 10:07:39 39° 319° (NW) 10:15:09 435.175 FM
PCSat 25 Jul 10:03:30 10:07:35 21° 39° (NE) 10:11:38 145.825 MHz
HO-68 25 Jul 10:04:28 10:10:45 32° 95° (E) 10:16:58 435.675 MHz FM
Saudisat 1A 25 Jul 10:11:32 10:15:58 78° 306° (NW) 10:20:25 436.775 MHz
Oscar 11 25 Jul 10:26:53 10:29:20 15° 90° (E) 10:31:45 145.825 FM, Beacon 2401.500 USB
JAS-2 25 Jul 10:30:06 10:32:07 12° 312° (NW) 10:34:03 435.800 - 435.900 CW/SSB, 435.910 FM
UKube-1 25 Jul 11:11:53 11:16:17 81° 104° (ESE) 11:20:38 145.840 MHz, 145.915 MHz
Sapphire 25 Jul 11:12:24 11:17:43 52° 53° (NE) 11:23:00 437.095 MHz 1200 baud AX-25 AFSK
PCSat 25 Jul 11:46:14 11:51:42 84° 240° (WSW) 11:57:07 145.825 MHz
HO-68 25 Jul 11:51:49 11:58:44 55° 294° (WNW) 12:05:38 435.675 MHz FM
Saudisat 1A 25 Jul 11:53:36 11:56:17 16° 327° (NNW) 11:58:59 436.775 MHz
KITSAT 1 25 Jul 12:00:34 12:05:44 18° 347° (NNW) 12:10:55 435.175 FM
Oscar 11 25 Jul 12:01:37 12:05:53 56° 287° (WNW) 12:10:07 145.825 FM, Beacon 2401.500 USB
FUNcube-1 25 Jul 12:11:46 12:15:56 70° 102° (ESE) 12:20:06 145.950 - 145.970 MHz USB
Oscar 19 25 Jul 12:41:15 12:42:46 11° 55° (NE) 12:44:17 437.125 CW, 437.150 USB
UKube-1 25 Jul 12:50:08 12:51:51 12° 301° (WNW) 12:53:34 145.840 MHz, 145.915 MHz
JAS-1B 25 Jul 12:52:44 12:57:13 15° 39° (NE) 13:01:48 435.800 - 435.900 CW/SSB
Sapphire 25 Jul 12:56:25 13:00:49 26° 251° (WSW) 13:05:13 437.095 MHz 1200 baud AX-25 AFSK
Oscar 16 25 Jul 13:06:28 13:10:04 20° 61° (ENE) 13:13:40 437.025 USB, Beacon 2401.1428
ITAMSAT 1 25 Jul 13:20:42 13:23:00 13° 56° (NE) 13:25:18 435.822 SSB
RS-15 25 Jul 13:24:00 13:31:13 20° 99° (E) 13:38:19 29.354 - 29.394 USB, Beacon 29.352 USB
AO-Echo 25 Jul 13:26:59 13:29:57 15° 58° (ENE) 13:32:54 ?
PCSat 25 Jul 13:32:07 13:34:14 12° 258° (WSW) 13:36:21 145.825 MHz
AO-27 25 Jul 13:37:25 13:40:55 18° 59° (ENE) 13:44:24 436.795 MHz FM
Uribyol 2 25 Jul 13:39:33 13:43:12 20° 60° (ENE) 13:46:51 436.500 FM
HO-68 25 Jul 13:42:09 13:44:55 13° 315° (NW) 13:47:41 435.675 MHz FM
FUNcube-1 25 Jul 13:50:03 13:51:48 12° 299° (WNW) 13:53:33 145.950 - 145.970 MHz USB
KITSAT 1 25 Jul 13:59:21 14:04:51 19° 18° (NNE) 14:10:20 435.175 FM
SO-50 25 Jul 14:03:55 14:07:48 30° 115° (ESE) 14:11:46 436.795 FM
AO-7 25 Jul 14:10:03 14:11:46 11° 34° (NE) 14:13:29 29.400 - 29.500 MHz
Oscar 19 25 Jul 14:16:07 14:21:13 73° 73° (ENE) 14:26:20 437.125 CW, 437.150 USB
JAS-1B 25 Jul 14:36:51 14:45:12 48° 62° (ENE) 14:54:25 435.800 - 435.900 CW/SSB
Oscar 16 25 Jul 14:43:54 14:48:58 61° 259° (WSW) 14:54:03 437.025 USB, Beacon 2401.1428
TMSAT-1 25 Jul 14:54:34 14:58:54 26° 63° (ENE) 15:03:15 436.925 FM
ITAMSAT 1 25 Jul 14:56:27 15:01:40 82° 74° (ENE) 15:06:55 435.822 SSB
AO-Echo 25 Jul 15:02:40 15:07:58 88° 256° (WSW) 15:13:20 ?
AO-27 25 Jul 15:14:41 15:19:53 69° 257° (WSW) 15:25:07 436.795 MHz FM
Gurwin Techsat 1B 25 Jul 15:15:25 15:20:33 52° 70° (ENE) 15:25:43 435.225 FM
Uribyol 2 25 Jul 15:17:02 15:22:12 64° 258° (WSW) 15:27:23 436.500 FM
Uosat F 25 Jul 15:21:58 15:23:43 12° 55° (NE) 15:25:28 435.120 FM
RS-15 25 Jul 15:30:38 15:41:44 80° 121° (ESE) 15:52:40 29.354 - 29.394 USB, Beacon 29.352 USB
SO-50 25 Jul 15:44:05 15:48:16 37° 314° (NW) 15:52:33 436.795 FM
AO-7 25 Jul 15:54:42 16:02:14 40° 58° (ENE) 16:09:47 29.400 - 29.500 MHz
KITSAT 1 25 Jul 15:54:53 16:02:38 46° 45° (NE) 16:10:18 435.175 FM
Oscar 19 25 Jul 15:58:17 16:01:07 15° 271° (W) 16:03:58 437.125 CW, 437.150 USB
UOSAT-12 25 Jul 16:25:26 16:29:55 56° 120° (ESE) 16:34:31 437.025 FM, 437.400 FM
JAS-1B 25 Jul 16:27:09 16:35:32 51° 264° (W) 16:45:01 435.800 - 435.900 CW/SSB
TMSAT-1 25 Jul 16:33:29 16:38:34 46° 261° (W) 16:43:41 436.925 FM
ITAMSAT 1 25 Jul 16:39:15 16:41:48 14° 272° (W) 16:44:22 435.822 SSB
AO-Echo 25 Jul 16:45:24 16:47:28 12° 273° (W) 16:49:33 ?
Uosat F 25 Jul 16:56:37 17:01:39 77° 73° (ENE) 17:06:43 435.120 FM
Gurwin Techsat 1B 25 Jul 16:56:42 17:00:49 23° 268° (W) 17:04:57 435.225 FM
Saudisat 1A 25 Jul 16:57:33 17:01:09 24° 40° (NE) 17:04:43 436.775 MHz
JAS-2 25 Jul 17:12:30 17:17:17 18° 54° (NE) 17:21:54 435.800 - 435.900 CW/SSB, 435.910 FM
SO-50 25 Jul 17:29:25 17:30:11 10° 337° (NNW) 17:30:57 436.795 FM
OPAL 25 Jul 17:32:59 17:37:51 45° 101° (ESE) 17:42:43 ?
RS-15 25 Jul 17:45:05 17:55:13 40° 328° (NNW) 18:05:21 29.354 - 29.394 USB, Beacon 29.352 USB
AO-7 25 Jul 17:46:37 17:54:46 55° 258° (WSW) 18:02:58 29.400 - 29.500 MHz
KITSAT 1 25 Jul 17:50:26 17:58:09 51° 247° (WSW) 18:05:50 435.175 FM
UOSAT-12 25 Jul 18:06:32 18:10:24 25° 320° (NW) 18:14:20 437.025 FM, 437.400 FM
Hamsat 25 Jul 18:35:00 18:39:04 54° 73° (ENE) 18:43:10 145.90 MHz
Saudisat 1A 25 Jul 18:36:43 18:41:02 54° 239° (WSW) 18:45:19 436.775 MHz
Uosat F 25 Jul 18:38:27 18:41:01 14° 271° (W) 18:43:36 435.120 FM
JAS-2 25 Jul 18:53:26 19:01:15 74° 72° (ENE) 19:08:38 435.800 - 435.900 CW/SSB, 435.910 FM
OPAL 25 Jul 19:12:23 19:16:30 26° 299° (WNW) 19:20:39 ?
STRAND 1 25 Jul 19:50:21 19:54:46 29° 95° (E) 19:59:09 ?
SO-67 25 Jul 19:57:35 20:01:02 71° 76° (ENE) 20:04:31 435.3500 MHz FM
RS-15 25 Jul 20:02:43 20:11:34 27° 2° (N) 20:20:30 29.354 - 29.394 USB, Beacon 29.352 USB
Hamsat 25 Jul 20:13:08 20:15:23 14° 270° (W) 20:17:39 145.90 MHz
HO-68 25 Jul 20:35:29 20:41:35 31° 58° (ENE) 20:47:41 435.675 MHz FM
UKube-1 25 Jul 20:36:44 20:37:59 11° 58° (ENE) 20:39:14 145.840 MHz, 145.915 MHz
JAS-2 25 Jul 20:40:31 20:46:45 26° 269° (W) 20:52:48 435.800 - 435.900 CW/SSB, 435.910 FM
SO-50 25 Jul 20:53:48 20:55:59 13° 28° (NNE) 20:58:10 436.795 FM
Oscar 11 25 Jul 21:24:15 21:26:53 16° 62° (ENE) 21:29:30 145.825 FM, Beacon 2401.500 USB
STRAND 1 25 Jul 21:29:19 21:34:02 38° 293° (WNW) 21:38:43 ?
UKube-1 25 Jul 22:09:07 22:13:29 90° 253° (WSW) 22:17:54 145.840 MHz, 145.915 MHz
RS-15 25 Jul 22:17:21 22:27:42 44° 36° (NE) 22:38:17 29.354 - 29.394 USB, Beacon 29.352 USB
HO-68 25 Jul 22:21:50 22:28:54 60° 258° (WSW) 22:35:59 435.675 MHz FM
SO-50 25 Jul 22:33:00 22:37:38 51° 49° (NE) 22:42:19 436.795 FM
